Regional Weather Roundup
Issued by NWS Jackson, KY

Home | Current Version | Previous Version | Graphics & Text | Print | Product List | Glossary On
Versions: 1 2 3 4 5 6 7 8 9 10 11 12 13 14 15 16 17 18 19 20 21 22 23 24 25 26 27 28 29 30 31 32 33 34 35 36 37 38 39 40 41 42 43 44 45 46 47 48 49 50
000
ASUS43 KJKL 311910
RWRJKL

EAST KENTUCKY HOURLY WEATHER ROUNDUP
NATIONAL WEATHER SERVICE JACKSON KY
300 PM EDT MON AUG 31 2015

NOTE: "FAIR" INDICATES FEW OR NO CLOUDS BELOW 12,000 FEET WITH
NO SIGNIFICANT WEATHER AND/OR OBSTRUCTIONS TO VISIBILITY.

* THESE REPORTS ARE NOT UNDER NWS QUALITY CONTROL AND MAY NOT
  REPORT WEATHER SUCH AS PRECIPITATION AND FOG.

KYZ079-080-083-085-087-088-110-112-115-119-120-312000
...EASTERN KENTUCKY...

CITY           SKY/WX    TMP DP  RH WIND       PRES   REMARKS
JACKSON        SUNNY     83  62  49 CALM      30.15F
LONDON         MOSUNNY   85  60  42 E8        30.14F
SOMERSET*      MOSUNNY   79  61  53 NE3       30.14F
MONTICELLO*    MOSUNNY   85  66  52 CALM      30.16F
WILLIAMSBURG*  SUNNY     82  64  54 E7        30.14F
MIDDLESBORO*   MOSUNNY   82  63  53 W3        30.14F
HARLAN APT*      N/A     82  61  47 MISG      30.14F
HAZARD APT*    MOCLDY    82  64  54 N3        30.14F
BLACK MTN*       N/A     75  63  64 VRB2        N/A
PIKEVILLE APT* SUNNY     82  64  54 E5        30.14F
BIG SANDY*     PTCLDY    85  66  52 NW5       30.14S
MOREHEAD APT*  CLEAR     82  64  54 CALM      30.15F
$$

KYZ035-036-041-042-044-050-067-078-099-312000
...CENTRAL KENTUCKY...

CITY           SKY/WX    TMP DP  RH WIND       PRES   REMARKS
MT STERLING*   SUNNY     86  63  45 CALM      30.15F
FLEMING/MASON* MOSUNNY   84  64  51 SW5       30.13F
DANVILLE*      MOSUNNY   82  61  47 E5        30.15F
RICHMOND*      SUNNY     84  61  45 CALM      30.13F
LEXINGTON      SUNNY     85  61  44 NW5       30.13F
FRANKFORT      SUNNY     85  60  42 SW6       30.12F
$$

KYZ091>093-OHZ055-061-077-WVZ005-015-034-035-042-312000
...SOUTHERN OHIO/WEST VIRGINIA...

CITY           SKY/WX    TMP DP  RH WIND       PRES   REMARKS
COVINGTON      MOSUNNY   86  64  47 W8        30.11F
COLUMBUS       PTSUNNY   83  67  58 NW5       30.08F
DAYTON         MOSUNNY   82  69  64 SW6       30.11F
WILMINGTON     MOSUNNY   77  66  68 S8G17     30.11F
HUNTINGTON     PTSUNNY   88  61  40 S5        30.10F
CHARLESTON     MOSUNNY   85  61  44 NE3       30.10F
PINEVILLE*     CLOUDY    78  69  74 MISG      30.20F
BECKLEY        CLOUDY    79  62  56 NW6       30.19F
BLUEFIELD      CLOUDY    83  57  41 NE6       30.20F
$$

VAZ002-007-008-TNZ017-027-036-066-071-312000
...SOUTHWEST VIRGINIA/EAST TENNESSEE...

CITY           SKY/WX    TMP DP  RH WIND       PRES   REMARKS
WISE*          MOSUNNY   81  55  41 NE7       30.22F
JONESVILLE*    PTCLDY    82  63  51 CALM      30.16F
ABINGDON*      PTSUNNY   80  58  46 CALM      30.17F
BRISTOL        MOSUNNY   83  61  47 VRB5      30.14F
KNOXVILLE      MOSUNNY   85  62  46 CALM      30.11
OAK RIDGE      MOSUNNY   84  64  50 VRB3      30.14F
CROSSVILLE     PTSUNNY   77  62  59 SE3       30.18F
NASHVILLE      MOSUNNY   86  63  45 E5        30.12F
$$

...KEY TO REMARKS...
VSB - VISIBILITY IN MILES
WCI - WIND CHILL INDEX
HX  - HEAT INDEX

$$


USA.gov is the U.S. government's official web portal to all federal, state and local government web resources and services.